Tracking 35334 objects as of 13-Sep-2026
HD Live streaming from Space Station
objects crossing your sky now

STARLINK-38279

Track STARLINK-38279 now!
10-day predictions
STARLINK-38279 is classified as:


NORAD ID: 100262
Int'l Code: 2026-181S
Launch date: August 8, 2026
Source: United States (US)
Launch site: AIR FORCE WESTERN TEST RANGE (AFWTR)
Your satellite tracking list
Your tracking list is empty




NASA's NSSDC Master Catalog

Two Line Element Set (TLE):
1 A0262U 26181S   26256.08325286  .00076234  00000-0  50732-3 0  9995
2 A0262  97.2829 299.3245 0001315  40.9487 319.1877 15.75194661  6798
Source of the keplerian elements: AFSPC